QPF
0.00 0.00 0.00 0.00 0.00 0.00 0.00 0.00 0.00 0.00 0.00 0.00 0.00 0.00 0.00 0.00 0.00 0.00 0.00 0.00 0.00 0.00 0.00 0.00 0.00 0.00 0.00 0.00 0.01 0.01 0.02 0.02 0.07 0.16 0.15 0.08 0.03 0.03 0.04 0.03 0.02 0.02 0.01 0.02
0.00 0.00 0.00 0.00 0.00 0.00 0.00 0.00 0.00 0.00 0.00 0.00 0.00 0.00 0.00 0.00 0.00 0.00 0.00 0.00 0.00 0.00 0.00 0.00 0.00 0.00 0.00 0.00 0.00 0.02 0.06 0.06 0.15 0.17 0.17 0.18 0.14 0.10 0.12 0.14 0.09 0.03 0.01 0.00
0.00 0.00 0.00 0.00 0.00 0.00 0.00 0.00 0.00 0.00 0.00 0.00 0.00 0.00 0.00 0.00 0.00 0.00 0.00 0.00 0.00 0.00 0.00 0.00 0.00 0.00 0.00 0.00 0.01 0.05 0.09 0.11 0.16 0.19 0.19 0.32 0.28 0.20 0.13 0.08 0.04 0.05 0.05 0.04
0.00 0.00 0.00 0.00 0.00 0.00 0.00 0.00 0.00 0.00 0.00 0.00 0.00 0.00 0.00 0.00 0.00 0.00 0.00 0.00 0.00 0.00 0.00 0.00 0.00 0.00 0.00 0.01 0.04 0.05 0.06 0.08 0.08 0.09 0.21 0.26 0.14 0.06 0.01 0.01 0.01 0.01 0.00 0.01
0.00 0.00 0.00 0.00 0.00 0.00 0.00 0.00 0.00 0.00 0.00 0.00 0.00 0.00 0.00 0.00 0.00 0.00 0.00 0.00 0.00 0.00 0.00 0.00 0.00 0.00 0.00 0.01 0.03 0.04 0.06 0.08 0.11 0.08 0.11 0.13 0.10 0.03 0.04 0.08 0.07 0.03 0.01 0.00
0.01 0.01 0.00 0.00 0.00 0.00 0.00 0.00 0.00 0.00 0.00 0.00 0.00 0.01 0.00 0.00 0.00 0.00 0.00 0.00 0.00 0.00 0.00 0.00 0.00 0.00 0.00 0.00 0.02 0.05 0.06 0.09 0.16 0.16 0.18 0.14 0.14 0.15 0.14 0.11 0.03 0.01 0.00 0.00
0.00 0.01 0.00 0.00 0.00 0.00 0.00 0.00 0.00 0.00 0.00 0.00 0.00 0.00 0.00 0.00 0.00 0.00 0.00 0.00 0.00 0.00 0.00 0.00 0.00 0.00 0.00 0.00 0.03 0.07 0.08 0.08 0.10 0.10 0.11 0.12 0.14 0.12 0.06 0.03 0.01 0.00 0.00 0.00
0.00 0.00 0.00 0.00 0.00 0.00 0.00 0.00 0.00 0.00 0.00 0.00 0.00 0.00 0.00 0.00 0.00 0.00 0.00 0.00 0.00 0.00 0.00 0.00 0.00 0.00 0.01 0.03 0.07 0.09 0.10 0.12 0.13 0.13 0.14 0.14 0.13 0.10 0.05 0.02 0.01 0.00 0.00 0.00
0.00 0.00 0.00 0.00 0.00 0.00 0.00 0.01 0.01 0.00 0.00 0.00 0.00 0.00 0.00 0.00 0.00 0.00 0.00 0.00 0.00 0.00 0.00 0.00 0.00 0.00 0.02 0.08 0.09 0.11 0.12 0.14 0.12 0.08 0.04 0.04 0.05 0.04 0.02 0.00 0.00 0.00 0.00 0.00
0.00 0.00 0.00 0.00 0.00 0.00 0.01 0.02 0.01 0.01 0.00 0.00 0.00 0.00 0.00 0.00 0.00 0.00 0.00 0.00 0.00 0.00 0.00 0.00 0.01 0.02 0.06 0.08 0.10 0.11 0.11 0.08 0.02 0.01 0.03 0.04 0.03 0.01 0.01 0.00 0.00 0.00 0.00 0.00
0.00 0.00 0.03 0.02 0.00 0.01 0.03 0.04 0.05 0.05 0.03 0.01 0.00 0.00 0.00 0.00 0.00 0.00 0.00 0.00 0.00 0.00 0.00 0.02 0.04 0.06 0.07 0.09 0.09 0.08 0.05 0.02 0.02 0.03 0.04 0.03 0.02 0.01 0.00 0.00 0.00 0.00 0.00 0.00
0.07 0.05 0.17 0.08 0.01 0.01 0.07 0.08 0.05 0.06 0.07 0.03 0.01 0.00 0.00 0.00 0.00 0.00 0.00 0.00 0.00 0.00 0.01 0.04 0.05 0.07 0.08 0.08 0.04 0.02 0.02 0.02 0.02 0.03 0.02 0.01 0.00 0.00 0.00 0.00 0.00 0.00 0.00 0.00
0.15 0.11 0.04 0.01 0.00 0.00 0.06 0.08 0.05 0.09 0.10 0.05 0.02 0.03 0.01 0.00 0.00 0.00 0.00 0.00 0.00 0.01 0.03 0.05 0.05 0.07 0.07 0.03 0.03 0.03 0.03 0.03 0.03 0.01 0.00 0.00 0.00 0.00 0.00 0.00 0.00 0.00 0.00 0.00
0.02 0.03 0.03 0.01 0.03 0.02 0.04 0.04 0.03 0.05 0.06 0.02 0.01 0.05 0.02 0.00 0.00 0.00 0.01 0.01 0.02 0.03 0.04 0.05 0.06 0.04 0.02 0.02 0.03 0.04 0.03 0.02 0.01 0.00 0.00 0.00 0.00 0.00 0.00 0.00 0.00 0.00 0.00 0.00
0.00 0.00 0.02 0.02 0.02 0.01 0.02 0.01 0.02 0.03 0.03 0.08 0.06 0.03 0.01 0.01 0.01 0.03 0.03 0.03 0.04 0.04 0.05 0.04 0.03 0.02 0.01 0.01 0.01 0.01 0.00 0.00 0.00 0.00 0.00 0.00 0.00 0.00 0.00 0.00 0.00 0.00 0.00 0.00
0.00 0.00 0.00 0.01 0.00 0.00 0.00 0.00 0.01 0.06 0.11 0.10 0.03 0.02 0.02 0.02 0.02 0.03 0.04 0.04 0.03 0.05 0.03 0.02 0.03 0.02 0.01 0.01 0.01 0.00 0.00 0.00 0.00 0.00 0.00 0.00 0.00 0.00 0.00 0.00 0.00 0.00 0.00 0.00
0.01 0.01 0.02 0.01 0.01 0.01 0.01 0.01 0.02 0.03 0.02 0.01 0.03 0.03 0.01 0.01 0.02 0.02 0.05 0.07 0.05 0.03 0.03 0.03 0.02 0.02 0.01 0.00 0.00 0.00 0.00 0.00 0.00 0.00 0.00 0.00 0.00 0.00 0.00 0.00 0.00 0.00 0.00 0.00
0.02 0.03 0.03 0.01 0.01 0.00 0.01 0.01 0.01 0.01 0.02 0.03 0.02 0.02 0.03 0.02 0.04 0.06 0.07 0.03 0.03 0.03 0.03 0.02 0.01 0.01 0.00 0.00 0.00 0.00 0.00 0.00 0.00 0.00 0.00 0.00 0.00 0.00 0.00 0.00 0.00 0.00 0.00 0.00
0.00 0.01 0.01 0.01 0.01 0.01 0.01 0.03 0.04 0.04 0.05 0.05 0.04 0.05 0.05 0.06 0.06 0.08 0.05 0.02 0.02 0.02 0.01 0.00 0.00 0.00 0.00 0.00 0.00 0.00 0.00 0.00 0.00 0.00 0.00 0.00 0.00 0.00 0.00 0.00 0.00 0.00 0.00 0.00
0.00 0.00 0.01 0.01 0.01 0.01 0.01 0.03 0.04 0.03 0.05 0.04 0.02 0.02 0.04 0.07 0.04 0.01 0.00 0.00 0.00 0.00 0.00 0.00 0.00 0.00 0.00 0.00 0.00 0.00 0.00 0.00 0.00 0.00 0.00 0.00 0.00 0.00 0.00 0.00 0.00 0.00 0.00 0.00
0.00 0.00 0.00 0.00 0.00 0.00 0.01 0.01 0.01 0.01 0.04 0.03 0.02 0.02 0.01 0.01 0.00 0.00 0.00 0.00 0.00 0.00 0.00 0.00 0.00 0.00 0.00 0.00 0.00 0.00 0.00 0.00 0.00 0.00 0.00 0.00 0.00 0.00 0.00 0.00 0.00 0.00 0.00 0.00
0.00 0.00 0.00 0.00 0.00 0.01 0.01 0.00 0.00 0.00 0.01 0.02 0.01 0.00 0.00 0.00 0.00 0.00 0.00 0.00 0.00 0.00 0.00 0.00 0.00 0.00 0.00 0.00 0.00 0.00 0.00 0.00 0.00 0.00 0.00 0.00 0.00 0.00 0.00 0.00 0.00 0.00 0.00 0.00
0.00 0.00 0.00 0.00 0.00 0.00 0.00 0.00 0.00 0.00 0.00 0.00 0.00 0.00 0.00 0.00 0.00 0.00 0.00 0.00 0.00 0.00 0.00 0.00 0.00 0.00 0.00 0.00 0.00 0.00 0.00 0.00 0.00 0.00 0.00 0.00 0.00 0.00 0.00 0.00 0.00 0.00 0.00 0.00
0.00 0.00 0.00 0.00 0.00 0.00 0.00 0.00 0.00 0.00 0.00 0.00 0.00 0.00 0.00 0.00 0.00 0.00 0.00 0.00 0.00 0.00 0.00 0.00 0.00 0.00 0.00 0.00 0.00 0.00 0.00 0.00 0.00 0.00 0.00 0.00 0.00 0.00 0.00 0.00 0.00 0.00 0.00 0.00
0.00 0.00 0.00 0.00 0.00 0.00 0.00 0.00 0.00 0.00 0.00 0.00 0.00 0.00 0.00 0.00 0.00 0.00 0.00 0.00 0.00 0.00 0.00 0.00 0.00 0.00 0.00 0.00 0.00 0.00 0.00 0.00 0.00 0.00 0.00 0.00 0.00 0.00 0.00 0.00 0.00 0.00 0.00 0.00
0.00 0.00 0.00 0.00 0.00 0.00 0.00 0.00 0.00 0.00 0.00 0.00 0.00 0.00 0.00 0.00 0.00 0.00 0.00 0.00 0.00 0.00 0.00 0.00 0.00 0.00 0.00 0.00 0.00 0.00 0.00 0.00 0.00 0.00 0.00 0.00 0.00 0.00 0.00 0.00 0.00 0.00 0.00 0.00
0.00 0.00 0.00 0.00 0.00 0.00 0.00 0.00 0.00 0.00 0.00 0.00 0.00 0.00 0.00 0.00 0.00 0.00 0.00 0.00 0.00 0.00 0.00 0.00 0.00 0.00 0.00 0.00 0.00 0.00 0.00 0.00 0.00 0.00 0.00 0.00 0.00 0.00 0.00 0.00 0.00 0.00 0.00 0.00
MSLP
1021.90 1021.22 1020.89 1019.94 1019.65 1019.97 1019.39 1018.16 1017.27 1015.04 1014.14 1013.66 1012.92 1012.74 1012.13 1011.98 1011.69 1011.78 1011.97 1012.01 1011.89 1011.61 1011.28 1011.01 1010.54 1009.81 1009.61 1008.87 1009.14 1009.71 1010.20 1010.62 1010.92 1011.32 1011.29 1012.14 1012.60 1012.12 1011.90 1011.77 1012.56 1012.75 1012.98 1013.75
1022.54 1021.89 1020.97 1019.82 1019.54 1019.33 1018.33 1017.57 1016.72 1015.91 1014.15 1014.13 1013.10 1012.61 1012.05 1011.76 1011.76 1011.86 1011.91 1011.97 1011.88 1011.74 1011.56 1011.37 1011.03 1010.55 1010.31 1009.65 1010.17 1010.62 1011.00 1011.48 1011.85 1011.90 1011.97 1012.33 1013.58 1013.11 1012.95 1013.52 1013.75 1014.44 1015.00 1014.82
1022.40 1021.93 1021.13 1020.02 1018.19 1017.83 1017.06 1016.59 1015.98 1014.95 1014.45 1013.94 1013.57 1012.60 1012.14 1012.13 1011.86 1012.06 1012.20 1012.04 1011.90 1011.96 1012.03 1011.90 1011.66 1011.73 1011.81 1011.67 1011.79 1012.01 1012.25 1012.58 1012.85 1013.08 1013.94 1014.06 1014.56 1014.53 1014.55 1014.21 1014.97 1015.90 1016.72 1016.78
1023.51 1022.62 1020.16 1017.85 1017.75 1017.38 1016.56 1016.26 1015.50 1014.63 1014.32 1014.17 1013.60 1012.65 1012.26 1011.85 1012.14 1012.50 1012.54 1012.31 1012.17 1012.26 1012.37 1012.35 1012.57 1012.82 1013.14 1012.94 1013.02 1013.19 1013.51 1013.95 1014.39 1014.68 1015.11 1015.32 1015.05 1015.43 1015.45 1015.83 1016.23 1016.94 1017.65 1017.38
1024.54 1022.16 1019.18 1017.78 1016.72 1016.27 1015.62 1014.76 1014.99 1014.55 1013.93 1013.64 1012.93 1012.30 1012.21 1012.62 1013.12 1013.00 1012.67 1012.46 1012.43 1012.55 1012.73 1012.78 1013.48 1013.77 1014.13 1014.27 1014.30 1014.49 1014.94 1015.33 1015.83 1016.09 1016.19 1016.46 1016.24 1016.72 1017.18 1017.27 1017.63 1018.22 1018.24 1018.19
1023.80 1022.45 1019.24 1016.18 1016.41 1016.24 1015.65 1013.94 1013.97 1013.63 1013.57 1013.69 1013.57 1012.75 1012.13 1013.25 1013.33 1013.01 1012.73 1012.56 1012.60 1012.95 1013.25 1013.72 1014.16 1014.76 1015.14 1015.49 1015.56 1015.67 1016.09 1016.41 1016.78 1016.99 1017.00 1016.98 1017.27 1017.59 1017.86 1018.04 1018.30 1018.79 1018.86 1018.73
1022.96 1021.52 1018.67 1016.80 1016.35 1016.24 1015.79 1013.86 1013.79 1013.89 1013.86 1013.75 1013.67 1013.40 1013.08 1013.35 1013.41 1013.28 1012.87 1012.67 1013.07 1013.52 1014.34 1015.07 1015.32 1015.82 1016.31 1016.83 1016.91 1017.28 1017.34 1017.53 1017.75 1017.97 1018.03 1018.18 1018.40 1018.84 1018.82 1018.84 1018.78 1018.94 1019.06 1019.36
1021.04 1020.20 1017.88 1016.32 1016.47 1016.65 1015.72 1015.53 1015.15 1014.52 1014.31 1013.93 1013.55 1013.35 1013.27 1013.38 1013.06 1013.10 1012.96 1012.97 1013.80 1014.34 1015.50 1016.22 1016.52 1016.96 1017.55 1017.94 1018.40 1018.51 1018.64 1018.74 1018.90 1019.21 1019.31 1019.49 1019.50 1020.26 1020.15 1019.95 1019.61 1019.51 1019.60 1019.77
1021.20 1018.49 1016.91 1017.18 1016.91 1016.11 1015.82 1015.10 1014.91 1015.29 1015.13 1014.56 1013.89 1013.32 1013.06 1013.10 1013.06 1013.08 1013.36 1013.91 1014.55 1015.53 1016.74 1017.40 1017.80 1018.25 1018.61 1019.24 1019.49 1019.62 1019.76 1020.09 1020.26 1020.49 1020.72 1020.78 1020.65 1021.16 1020.83 1020.54 1020.58 1020.64 1020.53 1020.43
1020.63 1018.84 1017.83 1017.35 1016.70 1016.41 1016.27 1015.71 1014.89 1014.51 1014.17 1014.33 1014.28 1013.44 1013.08 1013.08 1013.08 1013.12 1013.93 1015.07 1015.89 1017.05 1018.03 1018.66 1019.21 1019.56 1019.88 1020.23 1020.43 1020.59 1020.88 1021.08 1021.37 1021.69 1022.00 1021.98 1022.04 1022.13 1021.75 1021.74 1021.97 1022.19 1021.90 1021.44
1020.62 1019.29 1017.85 1018.39 1017.73 1017.18 1016.32 1016.18 1015.51 1015.13 1014.87 1013.92 1013.73 1013.95 1013.38 1013.36 1013.41 1014.08 1015.57 1016.52 1017.49 1018.27 1019.16 1019.79 1020.28 1020.72 1021.02 1021.28 1021.32 1021.59 1021.97 1022.15 1022.27 1022.59 1022.96 1023.08 1023.38 1023.46 1023.62 1024.25 1024.44 1023.88 1022.93 1022.90
1021.07 1021.24 1021.26 1019.29 1017.99 1017.38 1016.31 1015.33 1014.85 1014.62 1014.43 1014.38 1013.90 1013.88 1013.63 1014.07 1014.53 1015.35 1016.75 1017.82 1018.86 1019.65 1020.22 1020.88 1021.32 1021.80 1022.08 1022.25 1022.19 1022.50 1022.96 1023.13 1023.33 1023.53 1023.70 1023.92 1024.29 1024.80 1025.32 1025.44 1025.65 1025.31 1025.08 1025.09
1022.93 1022.63 1021.99 1020.45 1018.83 1017.32 1015.46 1013.43 1013.97 1014.48 1014.46 1014.37 1014.32 1014.18 1014.61 1014.91 1015.80 1017.20 1018.20 1019.16 1020.15 1020.80 1021.34 1021.88 1022.35 1022.87 1023.27 1023.37 1023.46 1023.71 1023.94 1024.40 1024.64 1024.65 1024.73 1024.73 1024.69 1024.56 1024.79 1025.85 1025.92 1026.00 1026.02 1026.00
1023.16 1023.30 1021.70 1020.41 1018.87 1016.83 1015.63 1014.56 1014.24 1014.51 1014.69 1014.51 1014.80 1014.62 1015.43 1016.60 1017.81 1018.72 1019.70 1020.65 1021.46 1021.93 1022.46 1023.03 1023.50 1024.01 1024.56 1024.66 1024.84 1025.09 1025.31 1025.44 1025.41 1025.47 1025.59 1025.60 1025.40 1025.55 1025.85 1025.99 1025.83 1025.66 1025.88 1026.37
1023.73 1023.65 1023.12 1021.82 1019.85 1017.81 1015.96 1015.14 1014.82 1014.70 1014.64 1014.80 1015.09 1016.04 1017.14 1018.36 1019.49 1020.51 1021.35 1021.98 1022.62 1023.13 1023.74 1024.25 1024.73 1025.22 1025.46 1025.51 1025.47 1025.66 1025.82 1025.99 1026.27 1026.50 1026.68 1026.57 1026.48 1026.45 1026.48 1026.51 1026.45 1026.47 1026.41 1026.20
1024.63 1023.91 1023.13 1021.76 1020.46 1019.25 1017.83 1016.81 1016.42 1016.30 1016.39 1016.81 1017.41 1018.43 1019.40 1020.24 1021.13 1021.90 1022.65 1023.25 1023.44 1024.43 1025.21 1025.61 1026.01 1026.47 1026.63 1026.55 1026.53 1026.83 1027.14 1027.34 1027.12 1027.31 1027.49 1027.42 1027.41 1027.38 1027.38 1027.39 1027.32 1027.16 1026.91 1026.95
1024.78 1023.37 1023.15 1022.43 1021.72 1020.84 1020.22 1019.71 1019.33 1019.17 1019.17 1019.29 1019.99 1020.72 1021.28 1021.90 1022.70 1023.57 1024.39 1024.90 1025.27 1025.94 1026.58 1026.92 1027.33 1027.56 1027.40 1027.29 1027.30 1027.52 1027.84 1028.28 1028.40 1028.31 1028.37 1028.41 1028.33 1028.40 1028.37 1028.11 1028.01 1027.96 1027.73 1028.10
1026.08 1025.71 1025.01 1023.98 1022.92 1022.22 1021.85 1021.82 1021.57 1021.50 1021.57 1021.99 1022.25 1022.57 1023.02 1023.62 1024.48 1025.30 1025.91 1026.40 1026.87 1027.37 1027.87 1028.27 1028.43 1028.40 1028.28 1028.25 1028.30 1028.44 1028.79 1029.12 1029.26 1029.30 1029.56 1029.83 1029.55 1029.36 1029.11 1029.23 1029.20 1028.77 1028.84 1028.85
1026.31 1025.95 1025.33 1024.65 1024.09 1023.53 1023.32 1023.28 1023.52 1023.57 1023.71 1023.82 1023.94 1024.44 1024.99 1025.55 1026.08 1026.62 1027.13 1027.52 1027.90 1028.18 1029.19 1029.27 1029.23 1029.14 1029.31 1029.50 1029.28 1029.55 1029.86 1030.01 1030.14 1030.58 1030.78 1030.66 1030.52 1030.53 1030.62 1030.35 1030.24 1030.37 1030.20 1029.53
1026.50 1026.31 1026.01 1025.63 1025.38 1024.91 1024.59 1024.65 1024.60 1025.02 1025.41 1025.44 1025.73 1026.12 1026.60 1027.22 1027.50 1027.82 1028.22 1028.44 1029.07 1029.47 1029.77 1029.88 1029.98 1030.10 1030.26 1030.57 1030.42 1030.54 1030.80 1031.25 1031.53 1031.84 1031.81 1031.69 1031.54 1031.53 1031.72 1031.93 1031.82 1031.38 1030.89 1030.36
1026.74 1026.67 1026.71 1026.58 1026.43 1026.34 1026.16 1026.05 1025.69 1025.93 1026.79 1026.93 1026.99 1027.53 1027.88 1028.46 1028.77 1028.90 1028.91 1029.44 1030.51 1030.69 1030.85 1030.92 1030.90 1031.00 1031.19 1031.24 1031.39 1031.78 1032.14 1032.41 1032.52 1032.58 1032.55 1032.63 1032.89 1033.11 1033.02 1032.74 1032.45 1032.09 1031.97 1031.34
1026.83 1026.93 1027.02 1027.08 1027.16 1027.17 1027.30 1027.38 1027.39 1027.41 1027.66 1028.01 1028.46 1028.80 1029.07 1029.57 1029.92 1030.12 1030.43 1030.70 1031.54 1031.75 1031.80 1032.06 1032.40 1032.80 1032.65 1032.57 1032.76 1033.15 1033.43 1033.49 1033.42 1033.57 1033.99 1034.22 1034.27 1034.12 1033.98 1033.52 1033.51 1033.20 1032.77 1032.41
1026.74 1026.93 1027.19 1027.38 1027.47 1027.79 1028.12 1028.32 1028.46 1028.70 1028.94 1029.17 1029.25 1029.27 1029.36 1029.64 1029.96 1030.36 1031.15 1032.23 1032.43 1032.71 1033.01 1033.79 1034.55 1034.31 1034.05 1033.97 1034.32 1034.42 1034.46 1034.56 1034.94 1035.38 1035.48 1035.49 1035.31 1035.11 1034.78 1034.82 1034.48 1034.08 1033.73 1033.25
1026.51 1026.78 1027.11 1027.40 1027.61 1027.76 1028.18 1028.83 1029.18 1029.66 1030.01 1030.32 1030.63 1030.69 1030.54 1030.88 1031.64 1032.30 1032.92 1033.73 1033.88 1033.89 1034.41 1034.93 1035.20 1035.17 1034.88 1034.99 1035.28 1035.41 1035.68 1036.14 1036.43 1036.38 1036.48 1036.40 1036.08 1035.78 1035.65 1035.59 1035.36 1035.00 1034.61 1033.96
1026.55 1026.94 1027.15 1027.35 1027.57 1027.99 1028.49 1029.01 1029.44 1029.87 1030.22 1030.64 1031.03 1031.33 1031.42 1031.67 1031.97 1033.08 1033.67 1034.34 1034.74 1034.81 1035.58 1036.34 1036.05 1035.92 1035.73 1036.03 1036.48 1036.72 1037.00 1037.39 1037.36 1037.47 1037.43 1037.05 1036.72 1036.58 1036.45 1036.37 1036.25 1035.92 1035.29 1034.67
1026.23 1026.51 1026.87 1027.27 1027.65 1028.13 1028.62 1028.97 1029.33 1029.92 1030.41 1030.95 1031.49 1032.00 1032.43 1032.94 1033.44 1033.84 1034.44 1034.89 1035.14 1035.64 1035.85 1036.24 1036.34 1036.45 1036.79 1037.23 1037.61 1037.86 1037.93 1037.96 1037.90 1038.18 1037.95 1037.99 1037.63 1037.44 1037.45 1037.22 1036.87 1036.39 1035.98 1035.43
1026.20 1026.60 1026.96 1027.46 1027.91 1028.31 1028.64 1029.02 1029.42 1029.99 1030.48 1030.98 1031.61 1032.47 1032.93 1033.30 1033.81 1034.30 1034.92 1035.30 1035.77 1036.18 1036.55 1036.77 1037.03 1037.41 1037.74 1038.02 1038.29 1038.49 1038.71 1039.19 1039.46 1038.73 1038.45 1038.58 1038.47 1038.30 1038.27 1037.88 1037.54 1037.09 1036.70 1036.10
Thickness
5524 5523 5516 5516 5509 5486 5482 5489 5475 5496 5494 5498 5503 5493 5503 5503 5507 5504 5500 5500 5503 5508 5513 5517 5524 5533 5539 5549 5550 5546 5541 5539 5537 5533 5535 5524 5523 5530 5531 5536 5529 5526 5523 5520
5505 5504 5501 5499 5493 5477 5477 5473 5465 5463 5471 5479 5483 5480 5483 5487 5486 5484 5484 5485 5488 5493 5497 5501 5507 5514 5519 5529 5526 5524 5522 5520 5520 5521 5518 5513 5504 5509 5513 5509 5505 5499 5495 5497
5488 5487 5480 5469 5483 5477 5475 5471 5464 5458 5461 5465 5461 5469 5470 5469 5472 5468 5470 5474 5479 5481 5482 5486 5491 5493 5492 5496 5499 5500 5501 5502 5503 5502 5492 5490 5485 5487 5487 5493 5489 5480 5472 5472
5461 5465 5464 5491 5482 5475 5471 5460 5459 5457 5455 5452 5452 5463 5464 5467 5461 5457 5458 5463 5466 5467 5468 5471 5473 5473 5471 5475 5477 5480 5480 5480 5480 5478 5475 5475 5474 5472 5471 5469 5469 5464 5456 5458
5436 5463 5489 5485 5480 5474 5468 5473 5457 5452 5453 5452 5456 5460 5458 5449 5445 5446 5449 5453 5455 5456 5457 5459 5454 5455 5453 5454 5456 5457 5456 5456 5458 5458 5456 5455 5459 5453 5450 5451 5448 5444 5443 5445
5443 5430 5448 5495 5473 5465 5460 5465 5461 5456 5449 5442 5440 5443 5453 5436 5433 5435 5440 5442 5444 5443 5443 5441 5439 5436 5436 5435 5436 5437 5436 5437 5440 5442 5443 5443 5441 5438 5437 5437 5434 5431 5431 5433
5440 5433 5457 5469 5462 5452 5433 5458 5453 5445 5441 5437 5432 5432 5433 5428 5425 5426 5430 5433 5430 5429 5424 5419 5420 5419 5416 5414 5416 5415 5417 5419 5422 5424 5426 5425 5424 5419 5420 5421 5422 5421 5420 5418
5461 5441 5437 5467 5452 5431 5438 5430 5426 5427 5423 5424 5429 5427 5423 5419 5421 5419 5423 5423 5415 5414 5404 5401 5402 5401 5398 5398 5396 5397 5399 5401 5404 5405 5408 5407 5407 5403 5403 5403 5406 5407 5406 5404
5452 5474 5474 5457 5439 5435 5422 5413 5410 5395 5396 5400 5408 5417 5419 5416 5415 5414 5411 5408 5402 5396 5385 5382 5383 5383 5383 5381 5381 5381 5382 5383 5386 5387 5388 5390 5392 5388 5391 5393 5393 5392 5392 5392
5444 5458 5455 5444 5428 5411 5394 5383 5385 5386 5386 5386 5384 5400 5408 5409 5409 5409 5402 5390 5383 5372 5366 5364 5364 5366 5367 5366 5366 5366 5366 5369 5371 5372 5372 5374 5374 5375 5377 5379 5376 5372 5372 5374
5442 5449 5445 5419 5396 5375 5364 5352 5351 5352 5351 5369 5377 5377 5393 5397 5400 5395 5379 5368 5361 5357 5353 5350 5350 5351 5352 5352 5353 5352 5353 5356 5360 5360 5358 5360 5359 5358 5356 5350 5347 5350 5356 5353
5425 5413 5385 5383 5375 5357 5346 5341 5339 5340 5342 5344 5360 5368 5381 5383 5384 5378 5362 5352 5344 5342 5341 5339 5339 5339 5339 5340 5342 5342 5342 5346 5346 5347 5347 5348 5345 5341 5337 5335 5331 5332 5331 5327
5398 5390 5375 5370 5359 5352 5348 5351 5335 5330 5334 5337 5345 5360 5366 5371 5367 5350 5342 5336 5332 5331 5330 5329 5329 5327 5326 5328 5330 5329 5331 5331 5330 5332 5334 5336 5337 5339 5336 5324 5320 5317 5312 5307
5400 5383 5382 5374 5360 5358 5352 5344 5336 5332 5332 5339 5341 5357 5357 5350 5340 5333 5326 5322 5320 5321 5321 5318 5317 5316 5314 5316 5317 5317 5318 5319 5321 5323 5323 5323 5325 5324 5320 5316 5312 5309 5300 5292
5392 5380 5367 5359 5359 5358 5363 5355 5347 5343 5344 5342 5348 5346 5340 5332 5324 5317 5313 5313 5312 5311 5308 5308 5307 5306 5306 5308 5311 5311 5312 5313 5312 5312 5310 5312 5313 5310 5307 5303 5298 5293 5287 5283
5381 5380 5372 5370 5368 5359 5355 5355 5349 5344 5339 5337 5336 5329 5323 5318 5312 5309 5306 5304 5307 5301 5296 5297 5297 5295 5296 5300 5302 5302 5300 5299 5303 5303 5302 5302 5299 5296 5292 5288 5285 5280 5274 5263
5380 5385 5374 5373 5365 5357 5349 5341 5337 5333 5330 5328 5322 5317 5312 5309 5305 5300 5295 5291 5291 5288 5286 5286 5286 5287 5291 5295 5297 5295 5294 5292 5293 5294 5292 5289 5288 5284 5280 5277 5270 5262 5257 5243
5368 5364 5363 5364 5362 5354 5346 5337 5331 5326 5322 5316 5313 5310 5306 5302 5295 5288 5284 5281 5280 5279 5279 5278 5279 5282 5286 5288 5289 5289 5288 5287 5285 5284 5280 5275 5274 5271 5268 5259 5251 5246 5234 5222
5363 5361 5362 5362 5358 5352 5342 5334 5325 5319 5315 5311 5308 5302 5297 5292 5288 5285 5282 5282 5280 5276 5271 5274 5277 5279 5280 5281 5284 5283 5281 5279 5277 5272 5269 5266 5262 5256 5247 5241 5233 5220 5212 5209
5358 5356 5354 5353 5349 5347 5341 5332 5328 5319 5311 5308 5303 5298 5293 5288 5286 5282 5278 5277 5276 5275 5274 5274 5276 5277 5277 5275 5276 5275 5274 5270 5266 5260 5257 5253 5248 5241 5230 5219 5212 5206 5200 5190
5349 5347 5343 5341 5339 5336 5334 5329 5327 5320 5310 5306 5302 5296 5292 5286 5282 5280 5281 5278 5271 5269 5270 5273 5274 5273 5272 5271 5270 5266 5262 5258 5255 5251 5247 5240 5230 5221 5215 5210 5202 5192 5177 5172
5342 5337 5334 5332 5330 5327 5324 5321 5318 5312 5307 5301 5295 5290 5286 5280 5275 5274 5275 5273 5267 5266 5268 5267 5264 5262 5262 5263 5259 5254 5251 5248 5245 5239 5230 5223 5216 5211 5204 5198 5185 5176 5168 5156
5338 5334 5329 5325 5323 5319 5314 5311 5307 5303 5300 5296 5292 5290 5288 5284 5282 5279 5274 5265 5264 5262 5262 5257 5254 5254 5253 5251 5248 5244 5242 5238 5231 5222 5216 5211 5207 5200 5194 5183 5174 5165 5154 5144
5339 5334 5329 5325 5320 5317 5311 5303 5298 5292 5287 5283 5280 5279 5279 5274 5267 5263 5260 5256 5256 5257 5256 5251 5249 5247 5247 5245 5240 5236 5232 5224 5217 5214 5208 5203 5199 5194 5185 5174 5165 5155 5145 5137
5336 5331 5328 5324 5320 5314 5307 5301 5295 5290 5286 5281 5276 5273 5272 5269 5267 5259 5255 5251 5249 5249 5246 5243 5243 5242 5241 5237 5232 5227 5222 5216 5212 5206 5201 5197 5193 5185 5177 5167 5158 5148 5140 5132
5339 5335 5330 5324 5319 5313 5306 5301 5295 5288 5282 5275 5269 5265 5261 5256 5253 5252 5248 5247 5245 5243 5243 5241 5239 5237 5234 5229 5224 5219 5215 5212 5210 5202 5197 5188 5183 5178 5170 5162 5154 5146 5137 5129
5338 5332 5327 5321 5315 5309 5304 5299 5294 5287 5281 5274 5267 5259 5256 5253 5250 5248 5244 5243 5241 5240 5239 5237 5234 5231 5227 5223 5219 5215 5210 5204 5202 5197 5193 5183 5177 5172 5165 5158 5151 5143 5135 5128